{"data":{"norad_id":46032,"epoch":"2026-09-20T02:39:34.275168Z","epoch_age_seconds":51817,"freshness":"FRESH","line1":"1 46032U 20055F   26263.11081337  .00000252  00000+0  19877-4 0  9994","line2":"2 46032  53.1596 302.6275 0001312  96.1583 263.9568 15.31698712338679","mean_motion":15.31698712,"eccentricity":0.0001312,"inclination_deg":53.1596,"raan_deg":302.6275,"arg_perigee_deg":96.1583,"mean_anomaly_deg":263.9568,"bstar":1.9877e-5,"rev_number":33867,"period_min":94.013267016444,"perigee_km":469.8452615238,"apogee_km":471.64240785483,"semimajor_km":6848.8808346893,"source":"CELESTRAK","updated_at":"2026-09-20T09:00:38.459820Z"}}